DW7729 Weather Reports


Display with metric or nautical units.
time (UTC)temp
F
wind
direction
speed
MPH
gust
MPH
rain 1hr
in
rain 24hr
in
rain mn
in
humidity
%
barometer
mb
20181213034119 34 226 1.0 4.0 0.00 0.00 0.00 91 1012.2
20181213033631 34 218 1.0 3.0 0.00 0.00 0.00 90 1012.0
20181213033121 34 209 1.0 3.0 0.00 0.00 0.00 90 1012.1
20181213032632 34 175 0.0 3.0 0.00 0.00 0.00 90 1012.0
20181213032125 34 175 0.0 1.0 0.00 0.00 0.00 90 1011.9
20181213031617 34 175 0.0 0.0 0.00 0.00 0.00 89 1012.2
20181213031130 34 175 0.0 0.0 0.00 0.00 0.00 89 1012.1
20181213030621 34 175 0.0 0.0 0.00 0.00 0.00 89 1011.8
20181213030114 34 175 0.0 0.0 0.00 0.00 0.00 89 1011.9
20181213025628 34 175 0.0 0.0 0.00 0.00 0.00 89 1011.8
20181213025119 34 175 0.0 0.0 0.00 0.00 0.00 89 1011.8
20181213024632 34 175 0.0 0.0 0.00 0.00 0.00 89 1012.0
20181213024126 34 175 0.0 0.0 0.00 0.00 0.00 88 1011.8
20181213023617 34 175 0.0 0.0 0.00 0.00 0.00 88 1012.0
20181213023130 34 175 0.0 0.0 0.00 0.00 0.00 88 1012.2
20181213022620 34 175 0.0 1.0 0.00 0.00 0.00 88 1011.9
20181213022114 34 175 0.0 3.0 0.00 0.00 0.00 88 1012.1
20181213021626 34 175 0.0 3.0 0.00 0.00 0.00 88 1011.9
20181213021118 34 175 0.0 3.0 0.00 0.00 0.00 87 1011.9
20181213020613 34 176 2.0 3.0 0.00 0.00 0.00 87 1012.0
20181213020126 34 183 0.0 3.0 0.00 0.00 0.00 85 1012.0
20181213015614 34 183 0.0 5.0 0.00 0.00 0.00 86 1012.0
20181213015126 35 173 3.0 5.0 0.00 0.00 0.00 86 1012.0
20181213014619 35 161 0.0 0.0 0.00 0.00 0.00 84 1011.6
20181213014111 35 161 0.0 6.0 0.00 0.00 0.00 84 1012.0
20181213013622 35 161 2.0 7.0 0.00 0.00 0.00 84 1011.6
20181213013114 35 177 1.0 7.0 0.00 0.00 0.00 83 1011.6
20181213012626 35 170 4.0 10.0 0.00 0.00 0.00 83 1011.6
20181213012118 35 173 6.0 10.0 0.00 0.00 0.00 83 1011.6
20181213011611 35 173 1.0 8.0 0.00 0.00 0.00 81 1012.0
20181213011123 36 158 3.0 8.0 0.00 0.00 0.00 82 1011.6
20181213010613 36 152 5.0 8.0 0.00 0.00 0.00 80 1011.8
20181213010125 36 163 5.0 8.0 0.00 0.00 0.00 79 1011.7
20181213005619 36 218 3.0 7.0 0.00 0.00 0.00 78 1011.7
20181213005111 36 152 2.0 7.0 0.00 0.00 0.00 78 1011.7
20181213004624 36 138 3.0 7.0 0.00 0.00 0.00 77 1011.4
20181213004117 36 159 5.0 7.0 0.00 0.00 0.00 76 1011.7
20181213003609 36 156 3.0 7.0 0.00 0.00 0.00 77 1011.5
20181213003122 36 163 1.0 6.0 0.00 0.00 0.00 76 1011.3
20181213002614 36 160 0.0 6.0 0.00 0.00 0.00 77 1011.1
20181213002112 36 133 0.0 5.0 0.00 0.00 0.00 76 1011.4
20181213001607 36 128 2.0 5.0 0.00 0.00 0.00 76 1011.4
20181213001118 36 140 1.0 8.0 0.00 0.00 0.00 76 1011.2
20181213000612 36 140 3.0 8.0 0.00 0.00 0.00 76 1011.2
20181213000121 36 158 4.0 7.0 0.00 0.00 0.00 76 1011.1
20181212235614 36 156 4.0 6.0 0.00 0.00 0.00 75 1011.2
20181212235128 37 121 2.0 6.0 0.00 0.00 0.00 75 1011.2
20181212234618 37 160 2.0 6.0 0.00 0.00 0.00 75 1011.0
20181212234111 37 141 1.0 7.0 0.00 0.00 0.00 75 1010.7
20181212233621 37 137 2.0 7.0 0.00 0.00 0.00 75 1010.9
20181212233113 37 110 3.0 7.0 0.00 0.00 0.00 75 1010.7
20181212232604 37 134 3.0 7.0 0.00 0.00 0.00 75 1010.6
20181212232116 37 132 2.0 7.0 0.00 0.00 0.00 75 1010.7
20181212231608 37 141 1.0 10.0 0.00 0.00 0.00 75 1010.7
20181212231121 37 140 2.0 10.0 0.00 0.00 0.00 75 1010.6
20181212230615 37 119 3.0 7.0 0.00 0.00 0.00 75 1010.8
20181212230107 37 126 1.0 5.0 0.00 0.00 0.00 75 1011.0
20181212225620 37 133 1.0 5.0 0.00 0.00 0.00 75 1010.5
20181212225111 37 112 1.0 5.0 0.00 0.00 0.00 75 1010.6
20181212224606 37 130 1.0 5.0 0.00 0.00 0.00 75 1010.5
20181212224117 37 127 2.0 6.0 0.00 0.00 0.00 75 1010.6
20181212223611 37 95 2.0 6.0 0.00 0.00 0.00 76 1010.6
20181212223105 36 114 2.0 5.0 0.00 0.00 0.00 76 1010.7
20181212222618 36 100 0.0 6.0 0.00 0.00 0.00 77 1010.6
20181212222108 36 97 0.0 6.0 0.00 0.00 0.00 77 1010.5
20181212221619 36 124 2.0 5.0 0.00 0.00 0.00 77 1010.6
20181212221108 36 123 2.0 5.0 0.00 0.00 0.00 77 1010.7
20181212220622 36 123 2.0 5.0 0.00 0.00 0.00 76 1010.6
20181212220112 36 121 1.0 4.0 0.00 0.00 0.00 76 1010.3
20181212215604 36 110 3.0 7.0 0.00 0.00 0.00 76 1010.6
20181212215115 36 121 4.0 7.0 0.00 0.00 0.00 76 1010.4
20181212214606 36 118 3.0 6.0 0.00 0.00 0.00 76 1010.6
20181212214119 36 120 2.0 5.0 0.00 0.00 0.00 75 1010.3
20181212213612 36 106 0.0 7.0 0.00 0.00 0.00 74 1010.2
20181212213104 36 106 0.0 8.0 0.00 0.00 0.00 74 1010.4
20181212212616 36 123 0.0 8.0 0.00 0.00 0.00 74 1010.2
20181212212110 37 107 2.0 7.0 0.00 0.00 0.00 74 1010.3
20181212211620 37 104 3.0 7.0 0.00 0.00 0.00 74 1009.9
20181212211110 37 129 0.0 7.0 0.00 0.00 0.00 74 1010.2
20181212210603 37 116 0.0 6.0 0.00 0.00 0.00 74 1010.5
20181212210116 37 116 2.0 8.0 0.00 0.00 0.00 74 1010.1
20181212205609 37 88 4.0 10.0 0.00 0.00 0.00 74 1010.1
20181212205107 37 100 6.0 11.0 0.00 0.00 0.00 74 1010.0
20181212204602 37 99 4.0 11.0 0.00 0.00 0.00 74 1010.3
20181212204113 37 109 7.0 11.0 0.00 0.00 0.00 74 1010.4
20181212203604 37 93 4.0 11.0 0.00 0.00 0.00 74 1010.5
20181212203115 37 104 3.0 12.0 0.00 0.00 0.00 74 1010.3
20181212202607 36 97 7.0 12.0 0.00 0.00 0.00 74 1010.2
20181212202059 36 86 6.0 12.0 0.00 0.00 0.00 73 1010.2
20181212201611 36 105 5.0 12.0 0.00 0.00 0.00 73 1010.3
20181212201103 37 96 3.0 12.0 0.00 0.00 0.00 73 1010.0
20181212200614 37 114 0.0 12.0 0.00 0.00 0.00 72 1010.1
20181212200107 37 109 7.0 11.0 0.00 0.00 0.00 72 1010.6
20181212195558 37 110 7.0 11.0 0.00 0.00 0.00 72 1010.3
20181212195109 37 124 0.0 17.0 0.00 0.00 0.00 72 1010.4
20181212194600 37 134 9.0 17.0 0.00 0.00 0.00 72 1010.6
20181212194114 37 100 7.0 14.0 0.00 0.00 0.00 72 1010.4
20181212193607 37 113 3.0 12.0 0.00 0.00 0.00 71 1010.5
20181212193059 37 133 0.0 7.0 0.00 0.00 0.00 71 1010.5
20181212192611 37 133 1.0 7.0 0.00 0.00 0.00 70 1010.8
20181212192101 37 122 0.0 0.0 0.00 0.00 0.00 71 1010.5
20181212191613 37 122 0.0 8.0 0.00 0.00 0.00 71 1010.7
20181212191105 37 122 0.0 11.0 0.00 0.00 0.00 71 1010.9
20181212190602 37 96 8.0 11.0 0.00 0.00 0.00 71 1011.0
20181212190111 37 92 6.0 11.0 0.00 0.00 0.00 70 1010.9
20181212185600 37 101 0.0 12.0 0.00 0.00 0.00 71 1010.5
20181212185053 37 111 6.0 13.0 0.00 0.00 0.00 71 1010.2
20181212184604 37 101 8.0 13.0 0.00 0.00 0.00 71 1010.5
20181212184058 37 106 0.0 12.0 0.00 0.00 0.00 71 1010.3
20181212183609 37 128 1.0 7.0 0.00 0.00 0.00 71 1010.8
20181212183100 37 103 0.0 10.0 0.00 0.00 0.00 71 1010.2
20181212182552 37 88 4.0 10.0 0.00 0.00 0.00 71 1010.5
20181212182104 37 93 4.0 9.0 0.00 0.00 0.00 71 1011.2
20181212181555 37 81 2.0 7.0 0.00 0.00 0.00 70 1010.9
20181212181109 37 103 0.0 9.0 0.00 0.00 0.00 70 1010.8
20181212180601 37 95 0.0 9.0 0.00 0.00 0.00 71 1011.0
20181212180053 37 82 0.0 8.0 0.00 0.00 0.00 71 1011.4
20181212175608 37 85 0.0 8.0 0.00 0.00 0.00 73 1011.2
20181212175100 36 101 3.0 7.0 0.00 0.00 0.00 73 1011.6
20181212174551 36 70 0.0 0.0 0.00 0.00 0.00 76 1011.8
20181212174105 36 70 0.0 0.0 0.00 0.00 0.00 77 1012.0
20181212173557 36 70 0.0 13.0 0.00 0.00 0.00 77 1011.9
20181212173048 36 72 2.0 13.0 0.00 0.00 0.00 76 1011.7
20181212172600 36 77 2.0 11.0 0.00 0.00 0.00 78 1012.4
20181212172058 35 90 0.0 11.0 0.00 0.00 0.00 78 1012.2
20181212171550 35 134 0.0 6.0 0.00 0.00 0.00 80 1012.2
20181212171101 35 114 1.0 12.0 0.00 0.00 0.00 80 1012.5
20181212170553 35 93 7.0 12.0 0.00 0.00 0.00 80 1012.8
20181212170103 34 101 0.0 0.0 0.00 0.00 0.00 82 1012.8
20181212165552 34 101 0.0 12.0 0.00 0.00 0.00 82 1012.6
20181212165103 34 101 0.0 13.0 0.00 0.00 0.00 82 1012.8
20181212164554 34 97 3.0 16.0 0.00 0.00 0.00 81 1012.8
20181212164046 34 89 9.0 16.0 0.00 0.00 0.00 82 1012.8
20181212163600 33 73 0.0 8.0 0.00 0.00 0.00 83 1013.2
20181212163053 33 73 0.0 8.0 0.00 0.00 0.00 83 1013.0
20181212162548 31 100 0.0 0.0 0.00 0.00 0.00 86 1013.2
20181212162059 31 100 0.0 0.0 0.00 0.00 0.00 86 1013.2
20181212161552 31 100 0.0 0.0 0.00 0.00 0.00 86 1013.5
20181212161105 31 100 0.0 0.0 0.00 0.00 0.00 86 1013.5
20181212160556 31 100 0.0 14.0 0.00 0.00 0.00 86 1014.1
20181212160047 31 100 0.0 14.0 0.00 0.00 0.00 87 1014.2
20181212155601 31 81 0.0 9.0 0.00 0.00 0.00 87 1014.2
20181212155052 31 99 0.0 9.0 0.00 0.00 0.00 87 1014.1
20181212154546 31 98 3.0 7.0 0.00 0.00 0.00 87 1013.9
20181212154059 30 133 0.0 8.0 0.00 0.00 0.00 88 1014.1
20181212153555 30 133 0.0 9.0 0.00 0.00 0.00 88 1014.8
20181212153046 30 100 0.0 10.0 0.00 0.00 0.00 88 1014.7
20181212152556 30 104 6.0 12.0 0.00 0.00 0.00 88 1014.7
20181212152046 30 105 1.0 12.0 0.00 0.00 0.00 88 1014.4
20181212151558 30 87 3.0 11.0 0.00 0.00 0.00 89 1014.5
20181212151050 29 83 0.0 11.0 0.00 0.00 0.00 88 1014.5
20181212150601 29 130 0.0 10.0 0.00 0.00 0.00 89 1014.7
20181212150053 29 90 2.0 10.0 0.00 0.00 0.00 89 1014.8
20181212145546 28 111 0.0 8.0 0.00 0.00 0.00 89 1014.8
20181212145100 28 111 2.0 8.0 0.00 0.00 0.00 89 1014.8
20181212144552 28 93 1.0 6.0 0.00 0.00 0.00 89 1015.1
20181212144044 28 88 0.0 7.0 0.00 0.00 0.00 89 1015.2
20181212143556 28 82 2.0 7.0 0.00 0.00 0.00 89 1015.1
20181212143046 28 80 0.0 5.0 0.00 0.00 0.00 89 1015.2
20181212142559 28 80 0.0 9.0 0.00 0.00 0.00 89 1015.4
20181212142051 28 101 5.0 12.0 0.00 0.00 0.00 89 1015.4
20181212141543 27 90 7.0 12.0 0.00 0.00 0.00 89 1015.1
20181212141055 27 97 6.0 12.0 0.00 0.00 0.00 88 1015.3
20181212140545 27 87 4.0 11.0 0.00 0.00 0.00 89 1015.2
20181212140100 27 86 4.0 11.0 0.00 0.00 0.00 88 1015.6
20181212135550 27 133 1.0 10.0 0.00 0.00 0.00 88 1015.9
20181212135046 27 94 3.0 11.0 0.00 0.00 0.00 88 1015.8
20181212134558 27 86 2.0 11.0 0.00 0.00 0.00 88 1016.1
20181212134048 27 102 0.0 10.0 0.00 0.00 0.00 88 1016.1
20181212133600 27 95 0.0 8.0 0.00 0.00 0.00 88 1016.3
20181212133051 27 119 2.0 8.0 0.00 0.00 0.00 88 1015.9
20181212132545 27 121 1.0 7.0 0.00 0.00 0.00 88 1016.3
20181212132056 27 106 3.0 12.0 0.00 0.00 0.00 89 1015.8
20181212131547 27 290 6.0 12.0 0.00 0.00 0.00 88 1015.7
20181212131059 26 116 0.0 7.0 0.00 0.00 0.00 88 1015.8
20181212130549 26 113 3.0 10.0 0.00 0.00 0.00 88 1015.7
20181212130042 26 100 6.0 10.0 0.00 0.00 0.00 88 1015.7
20181212125553 26 78 3.0 10.0 0.00 0.00 0.00 89 1015.8
20181212125046 26 125 1.0 10.0 0.00 0.00 0.00 89 1015.9
20181212124555 26 48 4.0 9.0 0.00 0.00 0.00 89 1016.0
20181212124042 26 116 4.0 8.0 0.00 0.00 0.00 88 1015.9
20181212123555 26 108 2.0 8.0 0.00 0.00 0.00 88 1016.4
20181212123045 26 93 0.0 6.0 0.00 0.00 0.00 88 1015.9
20181212122538 26 67 1.0 6.0 0.00 0.00 0.00 88 1016.0
20181212122049 26 103 3.0 7.0 0.00 0.00 0.00 88 1016.3
20181212121538 26 106 4.0 7.0 0.00 0.00 0.00 88 1016.6
20181212121050 26 89 2.0 6.0 0.00 0.00 0.00 89 1016.6
20181212120541 26 110 0.0 5.0 0.00 0.00 0.00 89 1016.6
20181212120039 25 112 0.0 5.0 0.00 0.00 0.00 88 1016.4
20181212115550 25 102 0.0 5.0 0.00 0.00 0.00 88 1016.5
20181212115038 25 102 2.0 5.0 0.00 0.00 0.00 88 1016.6
20181212114550 25 101 1.0 6.0 0.00 0.00 0.00 88 1016.6
20181212114040 25 85 0.0 7.0 0.00 0.00 0.00 88 1016.5
20181212113553 25 102 3.0 7.0 0.00 0.00 0.00 88 1016.5
20181212113045 25 102 0.0 5.0 0.00 0.00 0.00 88 1016.6
20181212112536 24 98 1.0 5.0 0.00 0.00 0.00 88 1016.6
20181212112047 25 101 0.0 5.0 0.00 0.00 0.00 89 1016.6
20181212111539 25 90 2.0 8.0 0.00 0.00 0.00 89 1016.7
20181212111049 24 95 2.0 8.0 0.00 0.00 0.00 89 1016.9
20181212110540 24 106 2.0 5.0 0.00 0.00 0.00 88 1017.1
20181212110051 24 110 1.0 3.0 0.00 0.00 0.00 89 1017.0
20181212105542 24 111 0.0 2.0 0.00 0.00 0.00 89 1017.1
20181212105034 24 111 0.0 4.0 0.00 0.00 0.00 89 1017.2
20181212104546 24 108 0.0 4.0 0.00 0.00 0.00 89 1017.2
20181212104035 24 107 2.0 5.0 0.00 0.00 0.00 88 1017.2
20181212103546 24 95 1.0 5.0 0.00 0.00 0.00 89 1017.0
20181212103036 23 111 0.0 5.0 0.00 0.00 0.00 89 1016.9
20181212102545 23 108 2.0 5.0 0.00 0.00 0.00 88 1017.3
20181212102037 23 131 0.0 3.0 0.00 0.00 0.00 88 1017.4
20181212101549 23 109 0.0 6.0 0.00 0.00 0.00 88 1017.0
20181212101040 22 101 0.0 6.0 0.00 0.00 0.00 88 1017.1
20181212100536 22 128 0.0 4.0 0.00 0.00 0.00 87 1017.1
20181212100048 22 134 0.0 3.0 0.00 0.00 0.00 87 1017.2
20181212095541 22 134 1.0 3.0 0.00 0.00 0.00 88 1017.3
20181212095032 22 135 0.0 3.0 0.00 0.00 0.00 87 1017.3
20181212094543 22 140 1.0 3.0 0.00 0.00 0.00 87 1017.4
20181212094036 22 190 0.0 3.0 0.00 0.00 0.00 86 1017.3
20181212093530 21 190 0.0 0.0 0.00 0.00 0.00 86 1017.2
20181212093042 21 190 0.0 0.0 0.00 0.00 0.00 86 1017.7
20181212092535 21 190 0.0 0.0 0.00 0.00 0.00 86 1017.4
20181212092045 21 190 0.0 0.0 0.00 0.00 0.00 85 1017.7
20181212091539 21 190 0.0 0.0 0.00 0.00 0.00 85 1017.4
20181212091031 21 190 0.0 0.0 0.00 0.00 0.00 85 1017.4
20181212090543 21 190 0.0 3.0 0.00 0.00 0.00 85 1017.8
20181212090035 21 190 0.0 3.0 0.00 0.00 0.00 85 1017.6
20181212085529 22 200 1.0 2.0 0.00 0.00 0.00 85 1017.7
20181212085039 22 200 0.0 0.0 0.00 0.00 0.00 85 1017.6
20181212084530 22 200 0.0 0.0 0.00 0.00 0.00 85 1017.6
20181212084041 22 200 0.0 0.0 0.00 0.00 0.00 85 1017.5
20181212083532 22 200 0.0 0.0 0.00 0.00 0.00 85 1017.5
20181212083043 22 200 0.0 0.0 0.00 0.00 0.00 85 1017.6
20181212082636 22 200 0.0 0.0 0.00 0.00 0.00 85 1017.7
20181212082149 22 200 0.0 0.0 0.00 0.00 0.00 85 1017.7
20181212081639 22 201 0.0 0.0 0.00 0.00 0.00 84 1017.6
20181212081148 22 200 0.0 0.0 0.00 0.00 0.00 84 1017.9
20181212080637 22 200 0.0 0.0 0.00 0.00 0.00 85 1017.7
20181212080131 22 200 0.0 0.0 0.00 0.00 0.00 84 1017.7
20181212075641 22 200 0.0 0.0 0.00 0.00 0.00 85 1018.3
20181212075137 23 200 0.0 0.0 0.00 0.00 0.00 84 1018.3
20181212074628 23 200 0.0 0.0 0.00 0.00 0.00 84 1018.2
20181212074142 23 200 0.0 0.0 0.00 0.00 0.00 84 1018.0
20181212073635 23 200 0.0 0.0 0.00 0.00 0.00 84 1018.2
20181212073144 23 200 0.0 0.0 0.00 0.00 0.00 84 1018.2
20181212072637 23 200 0.0 0.0 0.00 0.00 0.00 84 1018.0
20181212072129 23 200 0.0 0.0 0.00 0.00 0.00 84 1017.9
20181212071639 23 200 0.0 0.0 0.00 0.00 0.00 84 1018.0
20181212071130 23 200 0.0 0.0 0.00 0.00 0.00 83 1018.1
20181212070642 23 200 0.0 0.0 0.00 0.00 0.00 83 1018.0
20181212070132 23 200 0.0 0.0 0.00 0.00 0.00 83 1017.8
20181212065639 23 200 0.0 2.0 0.00 0.00 0.00 83 1017.7
20181212065129 24 200 0.0 2.0 0.00 0.00 0.00 82 1018.0
20181212064641 24 200 0.0 0.0 0.00 0.00 0.00 83 1017.9
20181212064131 24 200 0.0 2.0 0.00 0.00 0.00 82 1018.1
20181212063642 24 200 0.0 4.0 0.00 0.00 0.00 82 1018.1
20181212063133 24 200 1.0 4.0 0.00 0.00 0.00 82 1018.0
20181212062645 24 196 1.0 5.0 0.00 0.00 0.00 82 1018.1
20181212062133 25 199 1.0 5.0 0.00 0.00 0.00 82 1018.4
20181212061626 25 201 2.0 6.0 0.00 0.00 0.00 81 1018.1
20181212061139 25 202 4.0 6.0 0.00 0.00 0.00 81 1018.2
20181212060631 25 297 3.0 4.0 0.00 0.00 0.00 81 1018.0
20181212060126 25 298 0.0 3.0 0.00 0.00 0.00 80 1018.2
20181212055637 25 298 1.0 3.0 0.00 0.00 0.00 80 1018.4
20181212055128 26 298 0.0 2.0 0.00 0.00 0.00 80 1018.2
20181212054642 26 298 1.0 3.0 0.00 0.00 0.00 80 1018.2
20181212054133 26 298 0.0 3.0 0.00 0.00 0.00 80 1018.1
20181212053645 26 298 1.0 3.0 0.00 0.00 0.00 80 1018.4
20181212053132 26 298 1.0 3.0 0.00 0.00 0.00 80 1018.1
20181212052623 27 298 1.0 3.0 0.00 0.00 0.00 80 1018.1
20181212052133 27 298 1.0 3.0 0.00 0.00 0.00 81 1018.3
20181212051625 27 298 0.0 2.0 0.00 0.00 0.00 81 1018.3
20181212051137 27 298 0.0 0.0 0.00 0.00 0.00 80 1018.2
20181212050626 27 298 0.0 2.0 0.00 0.00 0.00 80 1018.5
20181212050139 28 298 0.0 2.0 0.00 0.00 0.00 80 1018.4
20181212045627 28 298 1.0 3.0 0.00 0.00 0.00 80 1018.4
20181212045121 28 298 0.0 3.0 0.00 0.00 0.00 80 1018.4
20181212044632 28 298 1.0 3.0 0.00 0.00 0.00 80 1018.1
20181212044124 28 298 0.0 0.0 0.00 0.00 0.00 80 1018.5
20181212043639 28 298 0.0 0.0 0.00 0.00 0.00 81 1018.4
20181212043130 28 298 0.0 0.0 0.00 0.00 0.00 80 1018.4
20181212042622 28 298 0.0 0.0 0.00 0.00 0.00 80 1018.3
20181212042131 28 298 0.0 0.0 0.00 0.00 0.00 80 1018.4
20181212041627 28 298 0.0 0.0 0.00 0.00 0.00 80 1018.4
20181212041121 28 298 0.0 0.0 0.00 0.00 0.00 80 1018.5
20181212040634 28 298 0.0 2.0 0.00 0.00 0.00 80 1018.4
20181212040127 28 298 0.0 2.0 0.00 0.00 0.00 80 1018.4
20181212035620 28 298 0.0 2.0 0.00 0.00 0.00 80 1018.4
20181212035131 28 298 0.0 5.0 0.00 0.00 0.00 80 1018.5
20181212034627 28 298 0.0 5.0 0.00 0.00 0.00 80 1018.6